Starlink 31098

operational
NORAD ID: 58716 Int'l Des: 2024-002 Owner: SPXS Country: US Constellation: starlink
LEOCIRCULAR

Starlink 31098について

説明を読み込み中...

リアルタイム位置

3D地球を読み込み中...

次回通過

高度履歴

Altitude vs Time

uPlot chart will show altitude changes over time

軌道要素

1 58716U 24002M 25304.87357565 .00001008 00000-0 46181-4 0 9998
2 58716 53.1604 108.2272 0001249 84.3888 275.7256 15.30178843102293
Epoch: Oct 31, 2025 • Age: 46 hours

現在のステータス

高度 475.2 km
速度 7.63 km/s
衛星直下点 13.15°N, 149.7°E
打ち上げ日 Jan 3, 2024
運用期間 1.8 years
タイプ internet

技術仕様

分類 Payload
質量 730.00 kg
乾燥質量 700.00 kg
総質量 730.00 kg
長さ 0.30 m
直径 4.10 m
スパン 29.00 m
形状 Box + pan
製造者 SPXS
バスタイプ Starlink V2M
フェーズステータス In Orbit
所有者/国 SPXS/US

大規模コンステレーション

Loading constellations...